When you browse on this site, cookies collect data to enhance your experience and personalize the content and advertising you see.
Visit our Privacy Policy to learn more. By continuing to use the site, you agree to this use of cookies and data.
  • In Belgien
  • Länderverzeichnis
  • Für 7 Tage
  • Wassertemperatur
  • Satellitenkarten
  • Wetterkarte
  • Widgets
  • user-avatar
    Anmelden

    Stündliche Wetter Indianapolis

    Heute, 19 Dezember, Mittwoch

    Zeit Temperatur Niederschläge Wind Luftdruck Luftfeuchtigkeit
    00:00 -1°C° 0 mm 3 m/S 744 mmHg 78%
    01:00 -1°C° 0 mm 3 m/S 743 mmHg 79%
    02:00 -1°C° 0 mm 3 m/S 743 mmHg 81%
    03:00 -1°C° 0 mm 2 m/S 743 mmHg 82%
    04:00 -1°C° 0 mm 2 m/S 743 mmHg 82%
    05:00 -1°C° 0 mm 2 m/S 743 mmHg 82%
    06:00 -1°C° 0 mm 2 m/S 742 mmHg 83%
    07:00 0°C° 0 mm 3 m/S 742 mmHg 79%
    08:00 +1°C° 0 mm 3 m/S 742 mmHg 75%
    09:00 +1°C° 0 mm 4 m/S 742 mmHg 71%
    10:00 +4°C° 0 mm 4 m/S 741 mmHg 66%
    11:00 +5°C° 0 mm 4 m/S 741 mmHg 62%
    12:00 +7°C° 0 mm 5 m/S 740 mmHg 57%
    13:00 +7°C° 0 mm 4 m/S 740 mmHg 59%
    14:00 +7°C° 0 mm 4 m/S 739 mmHg 60%
    15:00 +7°C° 0 mm 4 m/S 739 mmHg 62%
    16:00 +6°C° 0 mm 4 m/S 738 mmHg 68%
    17:00 +5°C° 0 mm 4 m/S 738 mmHg 73%
    18:00 +4°C° 0 mm 4 m/S 738 mmHg 79%
    19:00 +4°C° 0 mm 4 m/S 738 mmHg 80%
    20:00 +4°C° 0 mm 4 m/S 738 mmHg 80%
    21:00 +4°C° 0 mm 4 m/S 737 mmHg 81%
    22:00 +4°C° 0 mm 4 m/S 737 mmHg 81%
    23:00 +4°C° 0 mm 4 m/S 737 mmHg 82%

    Morgen, 20 Dezember, Donnerstag

    Zeit Temperatur Niederschläge Wind Luftdruck Luftfeuchtigkeit
    00:00 +5°C° 0 mm 4 m/S 737 mmHg 82%
    01:00 +5°C° 0 mm 4 m/S 737 mmHg 85%
    02:00 +5°C° 0 mm 4 m/S 736 mmHg 87%
    03:00 +5°C° 0 mm 3 m/S 736 mmHg 89%
    04:00 +4°C° 0 mm 3 m/S 736 mmHg 91%
    05:00 +4°C° 0 mm 3 m/S 736 mmHg 92%
    06:00 +4°C° 0 mm 3 m/S 735 mmHg 94%
    07:00 +4°C° 0.1 mm 4 m/S 735 mmHg 93%
    08:00 +5°C° 0.1 mm 4 m/S 735 mmHg 92%
    09:00 +6°C° 0.1 mm 4 m/S 736 mmHg 91%
    10:00 +6°C° 0.3 mm 4 m/S 735 mmHg 90%
    11:00 +7°C° 0.3 mm 3 m/S 735 mmHg 88%
    12:00 +8°C° 0.3 mm 3 m/S 734 mmHg 87%
    13:00 +8°C° 0.2 mm 3 m/S 734 mmHg 87%
    14:00 +8°C° 0.2 mm 2 m/S 733 mmHg 87%
    15:00 +9°C° 0.2 mm 1 m/S 733 mmHg 87%
    16:00 +9°C° 0.3 mm 1 m/S 732 mmHg 90%
    17:00 +8°C° 0.3 mm 1 m/S 732 mmHg 93%
    18:00 +7°C° 0.3 mm 1 m/S 732 mmHg 95%
    19:00 +7°C° 0.2 mm 1 m/S 732 mmHg 95%
    20:00 +6°C° 0.2 mm 2 m/S 732 mmHg 95%
    21:00 +5°C° 0.2 mm 3 m/S 732 mmHg 95%
    22:00 +4°C° 0.3 mm 4 m/S 731 mmHg 93%
    23:00 +3°C° 0.3 mm 5 m/S 731 mmHg 91%

    übermorgen, 21 Dezember, Freitag

    Zeit Temperatur Niederschläge Wind Luftdruck Luftfeuchtigkeit
    00:00 +3°C° 0.3 mm 6 m/S 730 mmHg 89%
    01:00 +2°C° 0.1 mm 6 m/S 730 mmHg 88%
    02:00 +2°C° 0.1 mm 7 m/S 729 mmHg 87%
    03:00 +1°C° 0.1 mm 8 m/S 729 mmHg 85%
    04:00 +1°C° 0.1 mm 8 m/S 729 mmHg 85%
    05:00 +1°C° 0.1 mm 8 m/S 729 mmHg 84%
    06:00 +1°C° 0.1 mm 8 m/S 729 mmHg 84%
    07:00 0°C° 0.1 mm 9 m/S 729 mmHg 83%
    08:00 0°C° 0.1 mm 9 m/S 729 mmHg 82%
    09:00 0°C° 0.1 mm 9 m/S 729 mmHg 81%
    10:00 0°C° 0 mm 9 m/S 729 mmHg 79%
    11:00 0°C° 0 mm 9 m/S 729 mmHg 78%
    12:00 0°C° 0 mm 9 m/S 729 mmHg 76%
    13:00 0°C° 0 mm 9 m/S 729 mmHg 75%
    14:00 -1°C° 0 mm 9 m/S 729 mmHg 74%
    15:00 -1°C° 0 mm 9 m/S 730 mmHg 73%
    16:00 -2°C° 0 mm 8 m/S 730 mmHg 72%
    17:00 -2°C° 0 mm 8 m/S 731 mmHg 72%
    18:00 -4°C° 0 mm 8 m/S 732 mmHg 72%
    19:00 -3°C° 0 mm 7 m/S 732 mmHg 73%
    20:00 -3°C° 0 mm 7 m/S 732 mmHg 74%
    21:00 -4°C° 0 mm 6 m/S 733 mmHg 75%
    22:00 -4°C° 0 mm 6 m/S 733 mmHg 76%
    23:00 -4°C° 0 mm 5 m/S 733 mmHg 77%

    22 Dezember, Samstag

    Zeit Temperatur Niederschläge Wind Luftdruck Luftfeuchtigkeit
    00:00 -4°C° 0 mm 5 m/S 734 mmHg 78%
    01:00 -4°C° 0 mm 5 m/S 734 mmHg 79%
    02:00 -4°C° 0 mm 5 m/S 735 mmHg 80%
    03:00 -4°C° 0 mm 4 m/S 735 mmHg 82%
    04:00 -4°C° 0 mm 4 m/S 736 mmHg 82%
    05:00 -4°C° 0 mm 4 m/S 736 mmHg 82%
    06:00 -4°C° 0 mm 4 m/S 737 mmHg 82%
    07:00 -3°C° 0 mm 4 m/S 737 mmHg 79%
    08:00 -3°C° 0 mm 4 m/S 738 mmHg 76%
    09:00 -2°C° 0 mm 4 m/S 738 mmHg 73%
    10:00 -1°C° 0 mm 4 m/S 738 mmHg 69%
    11:00 0°C° 0 mm 4 m/S 738 mmHg 65%
    12:00 0°C° 0 mm 4 m/S 738 mmHg 61%
    13:00 +1°C° 0 mm 4 m/S 738 mmHg 59%
    14:00 +3°C° 0 mm 4 m/S 738 mmHg 57%
    15:00 +3°C° 0 mm 3 m/S 738 mmHg 56%
    16:00 +3°C° 0 mm 3 m/S 738 mmHg 61%
    17:00 +2°C° 0 mm 3 m/S 738 mmHg 67%
    18:00 +2°C° 0 mm 3 m/S 739 mmHg 73%
    19:00 +1°C° 0 mm 3 m/S 739 mmHg 77%
    20:00 0°C° 0 mm 4 m/S 739 mmHg 80%
    21:00 0°C° 0 mm 5 m/S 740 mmHg 84%
    22:00 -1°C° 0 mm 5 m/S 740 mmHg 84%
    23:00 -1°C° 0 mm 5 m/S 741 mmHg 85%

    23 Dezember, Sonntag

    Zeit Temperatur Niederschläge Wind Luftdruck Luftfeuchtigkeit
    00:00 -2°C° 0 mm 5 m/S 741 mmHg 86%
    01:00 -2°C° 0 mm 5 m/S 742 mmHg 86%
    02:00 -2°C° 0 mm 4 m/S 742 mmHg 85%
    03:00 -2°C° 0 mm 4 m/S 743 mmHg 85%
    04:00 -2°C° 0 mm 4 m/S 743 mmHg 85%
    05:00 -2°C° 0 mm 4 m/S 744 mmHg 85%
    06:00 -2°C° 0 mm 3 m/S 744 mmHg 85%
    07:00 -3°C° 0 mm 4 m/S 745 mmHg 82%
    08:00 -2°C° 0 mm 4 m/S 745 mmHg 80%
    09:00 -2°C° 0 mm 4 m/S 746 mmHg 77%
    10:00 -1°C° 0 mm 4 m/S 746 mmHg 73%
    11:00 -1°C° 0 mm 4 m/S 746 mmHg 69%
    12:00 0°C° 0 mm 5 m/S 746 mmHg 65%
    13:00 0°C° 0 mm 5 m/S 746 mmHg 63%
    14:00 0°C° 0 mm 5 m/S 745 mmHg 62%
    15:00 0°C° 0 mm 5 m/S 745 mmHg 60%
    16:00 0°C° 0 mm 4 m/S 746 mmHg 63%
    17:00 -1°C° 0 mm 4 m/S 746 mmHg 65%
    18:00 -1°C° 0 mm 3 m/S 747 mmHg 68%
    19:00 -1°C° 0 mm 3 m/S 747 mmHg 69%
    20:00 -2°C° 0 mm 3 m/S 747 mmHg 71%
    21:00 -2°C° 0 mm 3 m/S 747 mmHg 72%
    22:00 -4°C° 0 mm 3 m/S 747 mmHg 73%
    23:00 -4°C° 0 mm 3 m/S 747 mmHg 74%

    24 Dezember, Montag

    Zeit Temperatur Niederschläge Wind Luftdruck Luftfeuchtigkeit
    00:00 -4°C° 0 mm 3 m/S 747 mmHg 76%
    01:00 -4°C° 0 mm 3 m/S 747 mmHg 76%
    02:00 -4°C° 0 mm 3 m/S 747 mmHg 77%
    03:00 -4°C° 0 mm 3 m/S 748 mmHg 77%
    04:00 -4°C° 0 mm 3 m/S 748 mmHg 78%
    05:00 -4°C° 0 mm 3 m/S 748 mmHg 79%
    06:00 -5°C° 0 mm 3 m/S 749 mmHg 80%
    07:00 -4°C° 0 mm 3 m/S 749 mmHg 74%
    08:00 -2°C° 0 mm 3 m/S 750 mmHg 68%
    09:00 -2°C° 0 mm 3 m/S 750 mmHg 63%
    10:00 -1°C° 0 mm 3 m/S 750 mmHg 56%
    11:00 +1°C° 0 mm 3 m/S 750 mmHg 50%
    12:00 +2°C° 0 mm 3 m/S 749 mmHg 44%
    13:00 +2°C° 0 mm 3 m/S 749 mmHg 44%
    14:00 +2°C° 0 mm 3 m/S 749 mmHg 45%
    15:00 +3°C° 0 mm 2 m/S 749 mmHg 45%
    16:00 +2°C° 0 mm 2 m/S 749 mmHg 50%
    17:00 +1°C° 0 mm 2 m/S 748 mmHg 55%
    18:00 -1°C° 0 mm 2 m/S 748 mmHg 60%
    19:00 -1°C° 0 mm 2 m/S 748 mmHg 61%
    20:00 -2°C° 0 mm 3 m/S 748 mmHg 62%
    21:00 -2°C° 0 mm 3 m/S 748 mmHg 64%
    22:00 -2°C° 0 mm 3 m/S 748 mmHg 64%
    23:00 -2°C° 0 mm 3 m/S 748 mmHg 64%
    Mehr zeigen